| time (UTC) | temp F | wind direction | speed knots | gust knots | rain 1hr in | rain 24hr in | rain mn in | humidity % | barometer mb |
| 20260506091532 | 50 | 243 | 5.2 | 9.6 | 0.00 | 0.00 | 0.00 | 88 | 1017.4 |
| 20260506091523 | 50 | 237 | 6.1 | 9.6 | 0.00 | 0.00 | 0.00 | 88 | 1017.4 |
| 20260506091034 | 50 | 260 | 6.1 | 8.7 | 0.00 | 0.00 | 0.00 | 88 | 1016.4 |
| 20260506090632 | 50 | 279 | 5.2 | 7.8 | 0.00 | 0.00 | 0.00 | 89 | 1017.4 |
| 20260506090528 | 50 | 271 | 5.2 | 7.8 | 0.00 | 0.00 | 0.00 | 89 | 1017.4 |
| 20260506090031 | 50 | 262 | 6.1 | 8.7 | 0.00 | 0.00 | 0.00 | 89 | 1016.4 |
| 20260506085613 | 50 | 253 | 6.1 | 10.4 | 0.00 | 0.00 | 0.00 | 89 | 1017.1 |
| 20260506085533 | 50 | 264 | 5.2 | 10.4 | 0.00 | 0.00 | 0.00 | 89 | 1017.4 |
| 20260506085036 | 50 | 287 | 5.2 | 7.0 | 0.00 | 0.00 | 0.00 | 88 | 1016.4 |
| 20260506084549 | 50 | 277 | 6.1 | 8.7 | 0.00 | 0.00 | 0.00 | 88 | 1017.1 |
| 20260506084521 | 50 | 275 | 7.0 | 9.6 | 0.00 | 0.00 | 0.00 | 88 | 1017.1 |
| 20260506084050 | 50 | 277 | 6.1 | 12.2 | 0.00 | 0.00 | 0.00 | 87 | 1016.0 |
| 20260506083552 | 50 | 270 | 8.7 | 15.6 | 0.00 | 0.00 | 0.00 | 87 | 1016.7 |
| 20260506083526 | 50 | 264 | 8.7 | 15.6 | 0.00 | 0.00 | 0.00 | 87 | 1017.1 |
| 20260506083020 | 50 | 273 | 7.8 | 11.3 | 0.00 | 0.00 | 0.00 | 87 | 1016.0 |
| 20260506082531 | 51 | 255 | 8.7 | 13.9 | 0.00 | 0.00 | 0.00 | 87 | 1016.7 |
| 20260506082522 | 51 | 261 | 8.7 | 14.8 | 0.00 | 0.00 | 0.00 | 87 | 1016.7 |
| 20260506082214 | 50 | 267 | 7.0 | 10.4 | 0.00 | 0.00 | 0.00 | 88 | 1016.0 |
| 20260506081528 | 51 | 277 | 4.3 | 7.8 | 0.00 | 0.00 | 0.00 | 88 | 1016.7 |
| 20260506081030 | 51 | 272 | 7.8 | 17.4 | 0.00 | 0.00 | 0.00 | 88 | 1015.7 |
| 20260506080552 | 51 | 266 | 7.0 | 11.3 | 0.00 | 0.00 | 0.00 | 88 | 1016.7 |
| 20260506080523 | 51 | 268 | 6.1 | 11.3 | 0.00 | 0.00 | 0.00 | 88 | 1016.7 |
| 20260506073521 | 51 | 256 | 7.8 | 13.0 | 0.00 | 0.00 | 0.00 | 89 | 1016.4 |
| 20260506073043 | 51 | 261 | 7.8 | 10.4 | 0.00 | 0.00 | 0.00 | 89 | 1015.4 |
| 20260506072645 | 51 | 228 | 7.8 | 12.2 | 0.00 | 0.00 | 0.00 | 88 | 1016.0 |
| 20260506072543 | 51 | 237 | 7.8 | 11.3 | 0.00 | 0.00 | 0.00 | 88 | 1016.4 |
| 20260506072019 | 51 | 245 | 7.0 | 11.3 | 0.00 | 0.00 | 0.00 | 89 | 1015.4 |
| 20260506071602 | 51 | 242 | 6.1 | 8.7 | 0.00 | 0.00 | 0.00 | 88 | 1016.4 |
| 20260506071530 | 51 | 233 | 6.1 | 8.7 | 0.00 | 0.00 | 0.00 | 88 | 1016.0 |
| 20260506071042 | 51 | 255 | 6.1 | 10.4 | 0.00 | 0.00 | 0.00 | 88 | 1015.4 |
| 20260506070545 | 52 | 264 | 7.0 | 11.3 | 0.00 | 0.00 | 0.00 | 88 | 1016.0 |
| 20260506070518 | 52 | 271 | 6.1 | 9.6 | 0.00 | 0.00 | 0.00 | 88 | 1016.0 |
| 20260506062043 | 52 | 235 | 8.7 | 13.0 | 0.00 | 0.00 | 0.00 | 86 | 1014.7 |
| 20260506061543 | 53 | 252 | 6.1 | 10.4 | 0.00 | 0.00 | 0.00 | 85 | 1015.4 |
| 20260506061526 | 53 | 258 | 5.2 | 7.8 | 0.00 | 0.00 | 0.00 | 85 | 1015.7 |
| 20260506061020 | 53 | 248 | 6.1 | 12.2 | 0.00 | 0.00 | 0.00 | 84 | 1014.7 |
| 20260506060621 | 53 | 249 | 7.0 | 13.9 | 0.00 | 0.00 | 0.00 | 83 | 1015.4 |
| 20260506060548 | 53 | 251 | 7.8 | 13.0 | 0.00 | 0.00 | 0.00 | 83 | 1015.7 |
| 20260506060117 | 53 | 247 | 7.0 | 12.2 | 0.00 | 0.00 | 0.00 | 83 | 1014.3 |
| 20260506051024 | 53 | 261 | 6.1 | 8.7 | 0.00 | 0.00 | 0.00 | 88 | 1014.0 |
| 20260506050546 | 53 | 264 | 5.2 | 7.8 | 0.00 | 0.00 | 0.00 | 89 | 1015.0 |
| 20260506050535 | 53 | 277 | 7.0 | 12.2 | 0.00 | 0.00 | 0.00 | 89 | 1015.0 |
| 20260506045033 | 53 | 260 | 5.2 | 8.7 | 0.00 | 0.00 | 0.00 | 88 | 1014.0 |
| 20260506044547 | 53 | 261 | 5.2 | 9.6 | 0.00 | 0.00 | 0.00 | 89 | 1014.7 |
| 20260506044535 | 53 | 279 | 5.2 | 8.7 | 0.00 | 0.00 | 0.00 | 89 | 1014.7 |
| 20260506044029 | 53 | 247 | 6.1 | 8.7 | 0.00 | 0.00 | 0.00 | 89 | 1013.7 |
| 20260506043553 | 53 | 246 | 4.3 | 8.7 | 0.00 | 0.00 | 0.00 | 89 | 1014.3 |
| 20260506043523 | 53 | 242 | 4.3 | 8.7 | 0.00 | 0.00 | 0.00 | 89 | 1014.3 |
| 20260506043034 | 53 | 270 | 5.2 | 7.8 | 0.00 | 0.00 | 0.00 | 89 | 1013.7 |
| 20260506042555 | 53 | 287 | 4.3 | 7.0 | 0.00 | 0.00 | 0.00 | 89 | 1014.7 |
| 20260506042519 | 53 | 287 | 4.3 | 7.0 | 0.00 | 0.00 | 0.00 | 89 | 1014.7 |
| 20260506042031 | 53 | 270 | 4.3 | 7.0 | 0.00 | 0.00 | 0.00 | 90 | 1013.7 |
| 20260506041559 | 53 | 234 | 3.5 | 5.2 | 0.00 | 0.00 | 0.00 | 90 | 1014.3 |
| 20260506041534 | 53 | 252 | 4.3 | 7.0 | 0.00 | 0.00 | 0.00 | 90 | 1014.3 |
| 20260506041038 | 53 | 257 | 4.3 | 5.2 | 0.00 | 0.00 | 0.00 | 91 | 1013.3 |
| 20260506040538 | 53 | 253 | 3.5 | 6.1 | 0.00 | 0.00 | 0.00 | 92 | 1014.0 |
| 20260506040521 | 53 | 244 | 3.5 | 6.1 | 0.00 | 0.00 | 0.00 | 92 | 1014.0 |
| 20260506040024 | 53 | 231 | 3.5 | 5.2 | 0.00 | 0.00 | 0.00 | 92 | 1013.0 |
| 20260506035603 | 53 | 243 | 3.5 | 5.2 | 0.00 | 0.00 | 0.00 | 92 | 1014.0 |
| 20260506035543 | 53 | 243 | 3.5 | 7.0 | 0.00 | 0.00 | 0.00 | 92 | 1014.3 |
| 20260506035019 | 53 | 280 | 3.5 | 8.7 | 0.00 | 0.00 | 0.00 | 92 | 1013.3 |
| 20260506034658 | 54 | 262 | 5.2 | 7.8 | 0.00 | 0.00 | 0.00 | 92 | 1014.0 |
| 20260506034539 | 54 | 257 | 5.2 | 7.8 | 0.00 | 0.00 | 0.00 | 92 | 1014.3 |
| 20260506034033 | 54 | 258 | 3.5 | 7.8 | 0.00 | 0.00 | 0.00 | 92 | 1013.3 |
| 20260506033636 | 54 | 260 | 4.3 | 7.0 | 0.00 | 0.00 | 0.00 | 92 | 1014.0 |
| 20260506033518 | 54 | 245 | 4.3 | 5.2 | 0.00 | 0.00 | 0.00 | 92 | 1014.0 |
| 20260506033030 | 54 | 284 | 6.1 | 8.7 | 0.00 | 0.00 | 0.00 | 93 | 1013.0 |
| 20260506032524 | 54 | 301 | 5.2 | 9.6 | 0.00 | 0.00 | 0.00 | 93 | 1013.7 |
| 20260506032037 | 54 | 288 | 3.5 | 5.2 | 0.00 | 0.00 | 0.00 | 94 | 1012.6 |
| 20260506031539 | 55 | 252 | 2.6 | 4.3 | 0.00 | 0.00 | 0.00 | 93 | 1013.3 |
| 20260506031528 | 55 | 248 | 3.5 | 5.2 | 0.00 | 0.00 | 0.00 | 93 | 1013.7 |
| 20260506031031 | 55 | 241 | 4.3 | 8.7 | 0.00 | 0.00 | 0.00 | 93 | 1012.6 |
| 20260506030603 | 55 | 263 | 4.3 | 7.0 | 0.00 | 0.00 | 0.00 | 92 | 1013.3 |
| 20260506030601 | 55 | 261 | 4.3 | 7.0 | 0.00 | 0.00 | 0.00 | 92 | 1013.3 |
| 20260506030047 | 56 | 254 | 4.3 | 7.8 | 0.00 | 0.00 | 0.00 | 92 | 1012.3 |
| 20260506025651 | 56 | 265 | 6.1 | 8.7 | 0.00 | 0.00 | 0.00 | 92 | 1013.0 |
| 20260506025521 | 56 | 271 | 7.0 | 10.4 | 0.00 | 0.00 | 0.00 | 92 | 1013.3 |
| 20260506025028 | 56 | 261 | 5.2 | 7.8 | 0.00 | 0.00 | 0.00 | 93 | 1012.3 |
| 20260506024546 | 56 | 267 | 6.1 | 7.8 | 0.00 | 0.00 | 0.00 | 93 | 1013.0 |
| 20260506024525 | 56 | 268 | 4.3 | 7.8 | 0.00 | 0.00 | 0.00 | 93 | 1013.0 |
| 20260506024020 | 56 | 250 | 6.1 | 8.7 | 0.00 | 0.00 | 0.00 | 94 | 1011.9 |
| 20260506023557 | 56 | 259 | 5.2 | 7.8 | 0.00 | 0.00 | 0.00 | 96 | 1012.6 |
| 20260506023522 | 56 | 255 | 5.2 | 8.7 | 0.00 | 0.00 | 0.00 | 95 | 1013.0 |
| 20260506023033 | 56 | 251 | 5.2 | 10.4 | 0.00 | 0.00 | 0.00 | 96 | 1011.9 |
| 20260506022536 | 56 | 250 | 3.5 | 5.2 | 0.00 | 0.00 | 0.00 | 97 | 1013.0 |
| 20260506022518 | 56 | 253 | 2.6 | 4.3 | 0.00 | 0.00 | 0.00 | 97 | 1012.6 |
| 20260506022047 | 56 | 239 | 2.6 | 4.3 | 0.00 | 0.00 | 0.00 | 97 | 1011.6 |
| 20260506021607 | 55 | 239 | 2.6 | 4.3 | 0.00 | 0.00 | 0.00 | 97 | 1012.3 |
| 20260506021532 | 55 | 231 | 2.6 | 4.3 | 0.00 | 0.00 | 0.00 | 97 | 1012.6 |
| 20260506021055 | 55 | 244 | 3.5 | 6.1 | 0.00 | 0.00 | 0.00 | 97 | 1011.6 |
| 20260506020546 | 55 | 260 | 3.5 | 5.2 | 0.00 | 0.00 | 0.00 | 97 | 1012.6 |
| 20260506020519 | 55 | 258 | 3.5 | 3.5 | 0.00 | 0.00 | 0.00 | 97 | 1012.6 |
| 20260506020048 | 55 | 236 | 2.6 | 6.1 | 0.00 | 0.00 | 0.00 | 97 | 1011.6 |
| 20260506015551 | 55 | 256 | 2.6 | 4.3 | 0.00 | 0.00 | 0.00 | 97 | 1012.6 |
| 20260506015545 | 55 | 249 | 2.6 | 5.2 | 0.00 | 0.00 | 0.00 | 97 | 1012.3 |
| 20260506015024 | 55 | 286 | 2.6 | 6.1 | 0.00 | 0.00 | 0.00 | 97 | 1011.9 |
| 20260506014541 | 56 | 281 | 4.3 | 8.7 | 0.00 | 0.00 | 0.00 | 97 | 1013.0 |
| 20260506014538 | 56 | 276 | 4.3 | 8.7 | 0.00 | 0.00 | 0.00 | 97 | 1012.6 |
| 20260506014024 | 56 | 255 | 4.3 | 7.8 | 0.00 | 0.00 | 0.00 | 97 | 1011.9 |
| 20260506013601 | 56 | 264 | 5.2 | 6.1 | 0.00 | 0.00 | 0.00 | 97 | 1012.6 |
| 20260506013543 | 56 | 254 | 5.2 | 9.6 | 0.00 | 0.00 | 0.00 | 97 | 1013.0 |
| 20260506013048 | 56 | 264 | 5.2 | 10.4 | 0.00 | 0.00 | 0.00 | 97 | 1011.9 |
| 20260506012751 | 56 | 280 | 5.2 | 7.8 | 0.00 | 0.00 | 0.00 | 97 | 1012.6 |
| 20260506012540 | 56 | 271 | 5.2 | 7.8 | 0.00 | 0.00 | 0.00 | 97 | 1012.6 |
| 20260506012033 | 56 | 263 | 5.2 | 8.7 | 0.00 | 0.00 | 0.00 | 96 | 1011.6 |
| 20260506011620 | 56 | 256 | 5.2 | 7.8 | 0.00 | 0.00 | 0.00 | 96 | 1012.3 |
| 20260506011538 | 56 | 274 | 4.3 | 7.8 | 0.00 | 0.00 | 0.00 | 96 | 1012.3 |
| 20260506011029 | 56 | 259 | 4.3 | 7.0 | 0.00 | 0.00 | 0.00 | 96 | 1011.3 |
| 20260506010540 | 56 | 289 | 5.2 | 10.4 | 0.00 | 0.00 | 0.00 | 96 | 1011.9 |
| 20260506010532 | 56 | 292 | 5.2 | 10.4 | 0.00 | 0.00 | 0.00 | 96 | 1011.9 |
| 20260506010026 | 56 | 254 | 5.2 | 7.8 | 0.00 | 0.00 | 0.00 | 95 | 1011.3 |
| 20260506005722 | 56 | 284 | 3.5 | 5.2 | 0.00 | 0.00 | 0.00 | 95 | 1012.3 |
| 20260506005520 | 56 | 285 | 3.5 | 6.1 | 0.00 | 0.00 | 0.00 | 95 | 1012.3 |
| 20260506005023 | 57 | 273 | 4.3 | 7.0 | 0.00 | 0.00 | 0.00 | 94 | 1011.3 |
| 20260506004634 | 57 | 271 | 1.7 | 4.3 | 0.00 | 0.00 | 0.00 | 94 | 1011.6 |
| 20260506004533 | 57 | 262 | 1.7 | 4.3 | 0.00 | 0.00 | 0.00 | 94 | 1011.9 |
| 20260506004116 | 57 | 241 | 2.6 | 4.3 | 0.00 | 0.00 | 0.00 | 94 | 1010.9 |
| 20260506003521 | 57 | 237 | 3.5 | 5.2 | 0.00 | 0.00 | 0.00 | 94 | 1011.6 |
| 20260506003023 | 57 | 242 | 2.6 | 5.2 | 0.00 | 0.00 | 0.00 | 94 | 1010.6 |
| 20260506002601 | 57 | 272 | 3.5 | 4.3 | 0.00 | 0.00 | 0.00 | 94 | 1011.3 |
| 20260506002526 | 57 | 269 | 3.5 | 5.2 | 0.00 | 0.00 | 0.00 | 94 | 1011.3 |
| 20260506002019 | 57 | 250 | 3.5 | 7.0 | 0.00 | 0.00 | 0.00 | 94 | 1010.2 |
| 20260506001531 | 57 | 276 | 3.5 | 6.1 | 0.00 | 0.00 | 0.00 | 94 | 1011.3 |
| 20260506001033 | 57 | 290 | 4.3 | 7.8 | 0.00 | 0.00 | 0.00 | 94 | 1010.2 |
| 20260506000804 | 57 | 243 | 3.5 | 7.0 | 0.00 | 0.00 | 0.00 | 94 | 1010.9 |
| 20260506000518 | 57 | 246 | 3.5 | 7.0 | 0.00 | 0.00 | 0.00 | 94 | 1011.3 |
| 20260506000041 | 57 | 257 | 4.3 | 6.1 | 0.00 | 0.00 | 0.00 | 93 | 1010.2 |
| 20260505235553 | 57 | 276 | 4.3 | 7.8 | 0.00 | 0.00 | 0.00 | 93 | 1011.3 |
| 20260505235034 | 57 | 295 | 3.5 | 4.3 | 0.00 | 0.00 | 0.00 | 93 | 1010.2 |
| 20260505234540 | 57 | 297 | 5.2 | 7.8 | 0.00 | 0.00 | 0.00 | 93 | 1010.9 |
| 20260505234031 | 58 | 305 | 5.2 | 8.7 | 0.00 | 0.00 | 0.00 | 92 | 1009.9 |
| 20260505233533 | 58 | 297 | 3.5 | 6.1 | 0.00 | 0.00 | 0.00 | 92 | 1010.9 |
| 20260505233525 | 58 | 288 | 3.5 | 5.2 | 0.00 | 0.00 | 0.00 | 92 | 1010.6 |
| 20260505233035 | 58 | 281 | 3.5 | 5.2 | 0.00 | 0.00 | 0.00 | 92 | 1009.9 |
| 20260505232543 | 58 | 240 | 4.3 | 7.0 | 0.00 | 0.00 | 0.00 | 92 | 1010.6 |
| 20260505232529 | 58 | 242 | 4.3 | 7.0 | 0.00 | 0.00 | 0.00 | 92 | 1010.2 |
| 20260505232043 | 58 | 226 | 4.3 | 7.0 | 0.00 | 0.00 | 0.00 | 92 | 1009.6 |
| 20260505231535 | 58 | 260 | 4.3 | 7.8 | 0.00 | 0.00 | 0.00 | 92 | 1010.2 |
| 20260505231028 | 58 | 248 | 5.2 | 10.4 | 0.00 | 0.00 | 0.00 | 92 | 1009.6 |
| 20260505230548 | 58 | 271 | 6.1 | 10.4 | 0.00 | 0.00 | 0.00 | 92 | 1010.2 |
| 20260505230522 | 58 | 273 | 5.2 | 7.8 | 0.00 | 0.00 | 0.00 | 92 | 1010.2 |
| 20260505230030 | 58 | 265 | 6.1 | 10.4 | 0.00 | 0.00 | 0.00 | 92 | 1009.2 |
| 20260505225712 | 58 | 246 | 3.5 | 6.1 | 0.00 | 0.00 | 0.00 | 92 | 1009.9 |
| 20260505225527 | 58 | 242 | 3.5 | 6.1 | 0.00 | 0.00 | 0.00 | 92 | 1010.2 |
| 20260505225020 | 59 | 223 | 5.2 | 8.7 | 0.00 | 0.00 | 0.00 | 91 | 1008.9 |
| 20260505224540 | 59 | 235 | 4.3 | 6.1 | 0.00 | 0.00 | 0.00 | 90 | 1009.9 |
| 20260505224532 | 59 | 226 | 5.2 | 10.4 | 0.00 | 0.00 | 0.00 | 90 | 1009.9 |
| 20260505224034 | 59 | 269 | 5.2 | 8.7 | 0.00 | 0.00 | 0.00 | 87 | 1008.9 |
| 20260505223545 | 59 | 263 | 6.1 | 9.6 | 0.00 | 0.00 | 0.00 | 87 | 1009.9 |
| 20260505223540 | 59 | 254 | 6.1 | 7.8 | 0.00 | 0.00 | 0.00 | 87 | 1009.6 |
| 20260505223042 | 59 | 241 | 7.0 | 11.3 | 0.00 | 0.00 | 0.00 | 86 | 1008.5 |
| 20260505222525 | 60 | 240 | 6.1 | 8.7 | 0.00 | 0.00 | 0.00 | 85 | 1009.6 |
| 20260505222104 | 60 | 243 | 5.2 | 7.8 | 0.00 | 0.00 | 0.00 | 84 | 1008.5 |
| 20260505221616 | 60 | 295 | 5.2 | 7.0 | 0.00 | 0.00 | 0.00 | 83 | 1009.2 |
| 20260505221521 | 60 | 281 | 6.1 | 11.3 | 0.00 | 0.00 | 0.00 | 83 | 1009.2 |
| 20260505221045 | 60 | 287 | 5.2 | 7.0 | 0.00 | 0.00 | 0.00 | 82 | 1008.2 |
| 20260505220614 | 61 | 279 | 6.1 | 8.7 | 0.00 | 0.00 | 0.00 | 81 | 1009.2 |
| 20260505220534 | 61 | 282 | 4.3 | 8.7 | 0.00 | 0.00 | 0.00 | 81 | 1008.9 |
| 20260505220020 | 61 | 287 | 6.1 | 9.6 | 0.00 | 0.00 | 0.00 | 81 | 1008.2 |
| 20260505215523 | 61 | 302 | 6.1 | 9.6 | 0.00 | 0.00 | 0.00 | 80 | 1008.9 |
| 20260505215025 | 61 | 299 | 7.8 | 13.0 | 0.00 | 0.00 | 0.00 | 80 | 1007.8 |
| 20260505214553 | 62 | 307 | 12.2 | 18.2 | 0.00 | 0.00 | 0.00 | 79 | 1008.5 |
| 20260505214527 | 62 | 307 | 9.6 | 15.6 | 0.00 | 0.00 | 0.00 | 79 | 1008.5 |
| 20260505214021 | 62 | 307 | 10.4 | 19.1 | 0.00 | 0.00 | 0.00 | 79 | 1007.5 |
| 20260505213558 | 62 | 308 | 12.2 | 16.5 | 0.00 | 0.00 | 0.00 | 78 | 1008.2 |
| 20260505213532 | 62 | 310 | 12.2 | 20.0 | 0.00 | 0.00 | 0.00 | 78 | 1008.2 |
| 20260505213034 | 62 | 309 | 12.2 | 27.8 | 0.00 | 0.00 | 0.00 | 79 | 1007.2 |
| 20260505212528 | 63 | 302 | 13.9 | 18.2 | 0.00 | 0.00 | 0.00 | 78 | 1007.8 |
| 20260505212520 | 63 | 302 | 14.8 | 19.1 | 0.00 | 0.00 | 0.00 | 78 | 1008.2 |
| 20260505212022 | 65 | 309 | 17.4 | 27.8 | 0.00 | 0.00 | 0.00 | 75 | 1007.2 |
| 20260505211545 | 70 | 282 | 13.9 | 19.1 | 0.00 | 0.00 | 0.00 | 61 | 1007.5 |
| 20260505211524 | 70 | 284 | 14.8 | 22.6 | 0.00 | 0.00 | 0.00 | 61 | 1007.8 |
| 20260505211044 | 70 | 281 | 19.1 | 26.9 | 0.00 | 0.00 | 0.00 | 60 | 1005.8 |
| 20260505210520 | 70 | 252 | 16.5 | 26.9 | 0.00 | 0.00 | 0.00 | 60 | 1006.8 |
| 20260505210032 | 70 | 260 | 15.6 | 23.5 | 0.00 | 0.00 | 0.00 | 61 | 1005.8 |
| 20260505205552 | 71 | 281 | 13.9 | 24.3 | 0.00 | 0.00 | 0.00 | 61 | 1006.5 |
| 20260505205019 | 70 | 261 | 15.6 | 22.6 | 0.00 | 0.00 | 0.00 | 62 | 1005.5 |
| 20260505204548 | 70 | 259 | 17.4 | 26.9 | 0.00 | 0.00 | 0.00 | 63 | 1006.5 |
| 20260505204522 | 70 | 253 | 15.6 | 26.9 | 0.00 | 0.00 | 0.00 | 63 | 1006.8 |
| 20260505204033 | 70 | 268 | 14.8 | 22.6 | 0.00 | 0.00 | 0.00 | 64 | 1005.5 |
| 20260505203716 | 70 | 271 | 13.9 | 19.1 | 0.00 | 0.00 | 0.00 | 65 | 1006.8 |
| 20260505203527 | 70 | 264 | 13.9 | 18.2 | 0.00 | 0.00 | 0.00 | 65 | 1006.5 |
| 20260505203020 | 69 | 251 | 12.2 | 19.1 | 0.00 | 0.00 | 0.00 | 67 | 1005.8 |
| 20260505202532 | 69 | 275 | 12.2 | 14.8 | 0.00 | 0.00 | 0.00 | 68 | 1006.8 |
| 20260505202523 | 69 | 266 | 15.6 | 20.0 | 0.00 | 0.00 | 0.00 | 68 | 1006.5 |
| 20260505202026 | 70 | 271 | 10.4 | 18.2 | 0.00 | 0.00 | 0.00 | 69 | 1005.8 |
| 20260505201554 | 69 | 266 | 9.6 | 12.2 | 0.00 | 0.00 | 0.00 | 70 | 1006.5 |
| 20260505201519 | 69 | 267 | 10.4 | 15.6 | 0.00 | 0.00 | 0.00 | 71 | 1006.8 |
| 20260505201022 | 69 | 274 | 10.4 | 17.4 | 0.00 | 0.00 | 0.00 | 72 | 1005.8 |
| 20260505200542 | 68 | 265 | 10.4 | 13.9 | 0.00 | 0.00 | 0.00 | 73 | 1006.8 |
| 20260505200524 | 68 | 272 | 9.6 | 14.8 | 0.00 | 0.00 | 0.00 | 73 | 1006.8 |
| 20260505200117 | 68 | 265 | 11.3 | 20.0 | 0.00 | 0.00 | 0.00 | 74 | 1005.8 |
| 20260505195602 | 67 | 277 | 11.3 | 18.2 | 0.00 | 0.00 | 0.00 | 75 | 1006.8 |
| 20260505195539 | 67 | 280 | 12.2 | 15.6 | 0.00 | 0.00 | 0.00 | 76 | 1006.8 |
| 20260505195032 | 67 | 263 | 9.6 | 16.5 | 0.00 | 0.00 | 0.00 | 77 | 1006.1 |
| 20260505194618 | 66 | 259 | 10.4 | 15.6 | 0.00 | 0.00 | 0.00 | 78 | 1007.2 |
| 20260505194552 | 66 | 257 | 10.4 | 13.9 | 0.00 | 0.00 | 0.00 | 78 | 1007.2 |
| 20260505194040 | 66 | 259 | 11.3 | 15.6 | 0.00 | 0.00 | 0.00 | 79 | 1006.5 |
| 20260505193522 | 66 | 273 | 9.6 | 15.6 | 0.00 | 0.00 | 0.00 | 80 | 1007.5 |
| 20260505193025 | 66 | 238 | 8.7 | 14.8 | 0.00 | 0.00 | 0.00 | 81 | 1006.5 |
| 20260505192628 | 65 | 268 | 8.7 | 13.0 | 0.00 | 0.00 | 0.00 | 82 | 1007.5 |
| 20260505192602 | 65 | 265 | 9.6 | 15.6 | 0.00 | 0.00 | 0.00 | 82 | 1007.5 |
| 20260505192041 | 64 | 267 | 8.7 | 13.0 | 0.00 | 0.00 | 0.00 | 84 | 1006.8 |
| 20260505191549 | 64 | 240 | 7.8 | 9.6 | 0.00 | 0.00 | 0.00 | 85 | 1007.5 |
| 20260505191523 | 64 | 244 | 6.1 | 10.4 | 0.00 | 0.00 | 0.00 | 85 | 1007.5 |
| 20260505191034 | 64 | 243 | 5.2 | 7.8 | 0.00 | 0.00 | 0.00 | 86 | 1006.8 |
| 20260505190621 | 63 | 242 | 4.3 | 4.3 | 0.00 | 0.00 | 0.00 | 87 | 1007.8 |
| 20260505190540 | 63 | 234 | 7.0 | 13.0 | 0.00 | 0.00 | 0.00 | 86 | 1008.2 |
| 20260505190043 | 63 | 249 | 6.1 | 10.4 | 0.00 | 0.00 | 0.00 | 87 | 1007.2 |
| 20260505185533 | 62 | 237 | 4.3 | 7.8 | 0.00 | 0.00 | 0.00 | 87 | 1008.2 |
| 20260505185524 | 62 | 212 | 4.3 | 4.3 | 0.00 | 0.00 | 0.00 | 87 | 1007.8 |
| 20260505185102 | 61 | 230 | 5.2 | 8.7 | 0.00 | 0.00 | 0.00 | 88 | 1007.2 |
| 20260505184538 | 61 | 249 | 2.6 | 4.3 | 0.00 | 0.00 | 0.00 | 91 | 1007.8 |
| 20260505184107 | 60 | 174 | 1.7 | 5.2 | 0.00 | 0.00 | 0.00 | 92 | 1007.2 |
| 20260505183526 | 60 | 196 | 1.7 | 4.3 | 0.00 | 0.00 | 0.00 | 92 | 1008.2 |
| 20260505183349 | 59 | 146 | 4.3 | 5.2 | 0.00 | 0.00 | 0.00 | 93 | 1008.2 |
| 20260505183028 | 59 | 160 | 1.7 | 5.2 | 0.00 | 0.00 | 0.00 | 93 | 1007.5 |
| 20260505182549 | 59 | 157 | 3.5 | 6.1 | 0.00 | 0.00 | 0.00 | 93 | 1008.2 |
| 20260505182025 | 59 | 175 | 2.6 | 4.3 | 0.00 | 0.00 | 0.00 | 94 | 1007.5 |
| 20260505181548 | 59 | 178 | 3.5 | 7.0 | 0.00 | 0.00 | 0.00 | 94 | 1008.5 |
| 20260505181021 | 58 | 169 | 2.6 | 4.3 | 0.00 | 0.00 | 0.00 | 93 | 1007.8 |
| 20260505180549 | 58 | 195 | 1.7 | 3.5 | 0.00 | 0.00 | 0.00 | 93 | 1008.9 |
| 20260505180103 | 58 | 218 | 0.9 | 2.6 | 0.00 | 0.00 | 0.00 | 93 | 1007.8 |
| 20260505175548 | 58 | 262 | 2.6 | 4.3 | 0.00 | 0.00 | 0.00 | 93 | 1008.9 |
| 20260505175537 | 58 | 277 | 2.6 | 2.6 | 0.00 | 0.00 | 0.00 | 93 | 1008.5 |
| 20260505175453 | 58 | 303 | 2.6 | 2.6 | 0.00 | 0.00 | 0.00 | 93 | 1008.5 |
| 20260505175025 | 57 | 313 | 3.5 | 5.2 | 0.00 | 0.00 | 0.00 | 94 | 1007.8 |
| 20260505174524 | 58 | 312 | 3.5 | 5.2 | 0.00 | 0.00 | 0.00 | 93 | 1008.9 |
| 20260505174047 | 58 | 323 | 3.5 | 5.2 | 0.00 | 0.00 | 0.00 | 93 | 1008.2 |
| 20260505173529 | 58 | 324 | 2.6 | 3.5 | 0.00 | 0.00 | 0.00 | 92 | 1008.9 |
| 20260505173521 | 58 | 331 | 3.5 | 6.1 | 0.00 | 0.00 | 0.00 | 92 | 1008.9 |
| 20260505173023 | 58 | 334 | 3.5 | 6.1 | 0.00 | 0.00 | 0.00 | 91 | 1007.8 |
| 20260505172644 | 58 | 339 | 1.7 | 3.5 | 0.00 | 0.00 | 0.00 | 91 | 1008.5 |
| 20260505172534 | 58 | 334 | 1.7 | 5.2 | 0.00 | 0.00 | 0.00 | 91 | 1008.9 |
| 20260505172106 | 59 | 344 | 1.7 | 4.3 | 0.00 | 0.00 | 0.00 | 90 | 1007.5 |
| 20260505171623 | 59 | 336 | 2.6 | 5.2 | 0.00 | 0.00 | 0.00 | 89 | 1008.5 |
| 20260505171530 | 59 | 335 | 1.7 | 2.6 | 0.00 | 0.00 | 0.00 | 88 | 1008.5 |
| 20260505171152 | 59 | 334 | 2.6 | 2.6 | 0.00 | 0.00 | 0.00 | 87 | 1008.5 |
| 20260505171033 | 59 | 344 | 1.7 | 2.6 | 0.00 | 0.00 | 0.00 | 87 | 1007.5 |
| 20260505170527 | 59 | 333 | 2.6 | 4.3 | 0.00 | 0.00 | 0.00 | 87 | 1008.5 |
| 20260505170020 | 59 | 338 | 1.7 | 3.5 | 0.00 | 0.00 | 0.00 | 87 | 1007.5 |
| 20260505165619 | 59 | 331 | 3.5 | 5.2 | 0.00 | 0.00 | 0.00 | 85 | 1008.5 |
| 20260505165532 | 59 | 324 | 2.6 | 5.2 | 0.00 | 0.00 | 0.00 | 86 | 1008.5 |
| 20260505165034 | 59 | 294 | 3.5 | 4.3 | 0.00 | 0.00 | 0.00 | 86 | 1007.5 |
| 20260505164528 | 59 | 298 | 4.3 | 7.8 | 0.00 | 0.00 | 0.00 | 85 | 1008.5 |
| 20260505164519 | 59 | 304 | 4.3 | 6.1 | 0.00 | 0.00 | 0.00 | 85 | 1008.9 |
| 20260505164022 | 60 | 294 | 4.3 | 7.0 | 0.00 | 0.00 | 0.00 | 83 | 1008.2 |
| 20260505163544 | 62 | 288 | 8.7 | 13.0 | 0.00 | 0.00 | 0.00 | 74 | 1008.9 |
| 20260505163533 | 62 | 272 | 7.0 | 13.0 | 0.00 | 0.00 | 0.00 | 76 | 1009.2 |
| 20260505163027 | 62 | 275 | 7.0 | 13.0 | 0.00 | 0.00 | 0.00 | 73 | 1008.2 |
| 20260505162605 | 63 | 262 | 8.7 | 11.3 | 0.00 | 0.00 | 0.00 | 73 | 1008.9 |
| 20260505162520 | 63 | 253 | 7.0 | 9.6 | 0.00 | 0.00 | 0.00 | 73 | 1008.9 |
| 20260505162023 | 63 | 245 | 7.8 | 13.0 | 0.00 | 0.00 | 0.00 | 73 | 1008.2 |
| 20260505161525 | 63 | 247 | 7.0 | 11.3 | 0.00 | 0.00 | 0.00 | 73 | 1009.2 |
| 20260505161112 | 63 | 240 | 5.2 | 8.7 | 0.00 | 0.00 | 0.00 | 74 | 1008.2 |
| 20260505160523 | 63 | 265 | 5.2 | 8.7 | 0.00 | 0.00 | 0.00 | 74 | 1009.2 |
| 20260505153031 | 65 | 234 | 12.2 | 19.1 | 0.00 | 0.00 | 0.00 | 69 | 1008.5 |
| 20260505152533 | 65 | 226 | 13.9 | 18.2 | 0.00 | 0.00 | 0.00 | 68 | 1009.2 |
| 20260505152057 | 66 | 243 | 13.0 | 19.1 | 0.00 | 0.00 | 0.00 | 66 | 1008.5 |
| 20260505151558 | 66 | 226 | 14.8 | 20.9 | 0.00 | 0.00 | 0.00 | 64 | 1009.2 |
| 20260505151521 | 66 | 232 | 13.0 | 26.1 | 0.00 | 0.00 | 0.00 | 64 | 1009.2 |
| 20260505151032 | 67 | 265 | 13.9 | 21.7 | 0.00 | 0.00 | 0.00 | 60 | 1008.5 |
| 20260505150552 | 65 | 271 | 13.9 | 22.6 | 0.00 | 0.00 | 0.00 | 59 | 1009.2 |
| 20260505150526 | 66 | 268 | 11.3 | 22.6 | 0.00 | 0.00 | 0.00 | 59 | 1009.6 |
| 20260505140529 | 63 | 29 | 0.9 | 3.5 | 0.00 | 0.00 | 0.00 | 60 | 1009.6 |
| 20260505140520 | 63 | 353 | 0.9 | 2.6 | 0.00 | 0.00 | 0.00 | 60 | 1009.6 |
| 20260505125024 | 57 | 73 | 1.7 | 4.3 | 0.00 | 0.00 | 0.00 | 67 | 1009.2 |
| 20260505124609 | 56 | 95 | 0.9 | 3.5 | 0.00 | 0.00 | 0.00 | 69 | 1009.9 |
| 20260505124534 | 56 | 100 | 1.7 | 3.5 | 0.00 | 0.00 | 0.00 | 69 | 1010.2 |
| 20260505124019 | 55 | 77 | 4.3 | 7.8 | 0.00 | 0.00 | 0.00 | 70 | 1009.2 |
| 20260505123623 | 55 | 89 | 3.5 | 4.3 | 0.00 | 0.00 | 0.00 | 71 | 1009.9 |
| 20260505123531 | 55 | 88 | 4.3 | 7.8 | 0.00 | 0.00 | 0.00 | 71 | 1010.2 |
| 20260505123024 | 54 | 91 | 4.3 | 7.0 | 0.00 | 0.00 | 0.00 | 72 | 1009.6 |
| 20260505122553 | 54 | 71 | 3.5 | 7.0 | 0.00 | 0.00 | 0.00 | 74 | 1010.2 |
| 20260505122518 | 54 | 75 | 3.5 | 6.1 | 0.00 | 0.00 | 0.00 | 74 | 1010.6 |
| 20260505122021 | 54 | 68 | 4.3 | 7.8 | 0.00 | 0.00 | 0.00 | 75 | 1009.6 |
| 20260505121532 | 53 | 68 | 4.3 | 5.2 | 0.00 | 0.00 | 0.00 | 75 | 1010.6 |
| 20260505121104 | 52 | 76 | 5.2 | 8.7 | 0.00 | 0.00 | 0.00 | 76 | 1009.6 |
| 20260505120603 | 53 | 91 | 6.1 | 7.0 | 0.00 | 0.00 | 0.00 | 76 | 1010.6 |
| 20260505120519 | 53 | 91 | 5.2 | 8.7 | 0.00 | 0.00 | 0.00 | 76 | 1010.6 |
| 20260505120022 | 52 | 62 | 4.3 | 6.1 | 0.00 | 0.00 | 0.00 | 78 | 1009.9 |
| 20260505115709 | 53 | 64 | 4.3 | 6.1 | 0.00 | 0.00 | 0.00 | 76 | 1010.6 |
| 20260505115542 | 53 | 67 | 4.3 | 7.0 | 0.00 | 0.00 | 0.00 | 77 | 1010.9 |
| 20260505115018 | 53 | 67 | 2.6 | 6.1 | 0.00 | 0.00 | 0.00 | 76 | 1009.9 |
| 20260505114648 | 53 | 76 | 5.2 | 7.0 | 0.00 | 0.00 | 0.00 | 75 | 1010.6 |
| 20260505114521 | 53 | 74 | 4.3 | 7.0 | 0.00 | 0.00 | 0.00 | 75 | 1010.9 |
| 20260505114033 | 54 | 79 | 4.3 | 4.3 | 0.00 | 0.00 | 0.00 | 74 | 1009.9 |
| 20260505113543 | 53 | 56 | 1.7 | 3.5 | 0.00 | 0.00 | 0.00 | 76 | 1010.6 |
| 20260505113525 | 53 | 65 | 1.7 | 3.5 | 0.00 | 0.00 | 0.00 | 76 | 1010.9 |
| 20260505113020 | 53 | 58 | 2.6 | 4.3 | 0.00 | 0.00 | 0.00 | 76 | 1009.9 |
| 20260505112557 | 53 | 76 | 1.7 | 2.6 | 0.00 | 0.00 | 0.00 | 77 | 1010.6 |
| 20260505112539 | 52 | 66 | 1.7 | 3.5 | 0.00 | 0.00 | 0.00 | 77 | 1010.9 |
| 20260505112056 | 51 | 82 | 4.3 | 7.8 | 0.00 | 0.00 | 0.00 | 78 | 1009.9 |
| 20260505111611 | 51 | 68 | 5.2 | 7.0 | 0.00 | 0.00 | 0.00 | 79 | 1010.6 |
| 20260505111556 | 51 | 64 | 5.2 | 6.1 | 0.00 | 0.00 | 0.00 | 79 | 1010.6 |
| 20260505111024 | 50 | 71 | 6.1 | 13.0 | 0.00 | 0.00 | 0.00 | 81 | 1009.9 |
| 20260505110540 | 49 | 83 | 6.1 | 8.7 | 0.00 | 0.00 | 0.00 | 82 | 1010.6 |
| 20260505110532 | 49 | 72 | 6.1 | 9.6 | 0.00 | 0.00 | 0.00 | 82 | 1010.6 |
| 20260505102137 | 46 | 131 | 2.6 | 5.2 | 0.00 | 0.00 | 0.00 | 87 | 1009.9 |
| 20260505101634 | 45 | 79 | 4.3 | 7.0 | 0.00 | 0.00 | 0.00 | 88 | 1010.6 |
| 20260505101522 | 46 | 85 | 4.3 | 7.0 | 0.00 | 0.00 | 0.00 | 88 | 1010.9 |
| 20260505101025 | 45 | 74 | 0.9 | 3.5 | 0.00 | 0.00 | 0.00 | 89 | 1009.9 |
| 20260505100555 | 44 | 80 | 3.5 | 4.3 | 0.00 | 0.00 | 0.00 | 89 | 1010.9 |
| 20260505100544 | 44 | 78 | 3.5 | 4.3 | 0.00 | 0.00 | 0.00 | 89 | 1010.9 |
| 20260505100021 | 44 | 74 | 1.7 | 3.5 | 0.00 | 0.00 | 0.00 | 89 | 1010.2 |
| 20260505095523 | 44 | 82 | 1.7 | 3.5 | 0.00 | 0.00 | 0.00 | 89 | 1010.9 |
| 20260505095025 | 44 | 81 | 1.7 | 3.5 | 0.00 | 0.00 | 0.00 | 89 | 1010.2 |
| 20260505094520 | 44 | 73 | 2.6 | 3.5 | 0.00 | 0.00 | 0.00 | 89 | 1011.3 |
| 20260505094031 | 44 | 111 | 2.6 | 3.5 | 0.00 | 0.00 | 0.00 | 89 | 1010.2 |
| 20260505093559 | 44 | 122 | 2.6 | 3.5 | 0.00 | 0.00 | 0.00 | 89 | 1011.3 |
| 20260505093533 | 44 | 115 | 2.6 | 3.5 | 0.00 | 0.00 | 0.00 | 89 | 1010.9 |
| 20260505093027 | 44 | 96 | 3.5 | 5.2 | 0.00 | 0.00 | 0.00 | 89 | 1010.2 |
| 20260505092547 | 44 | 108 | 1.7 | 3.5 | 0.00 | 0.00 | 0.00 | 89 | 1011.3 |
| 20260505092521 | 44 | 94 | 1.7 | 3.5 | 0.00 | 0.00 | 0.00 | 89 | 1011.3 |
| 20260505092041 | 44 | 84 | 2.6 | 5.2 | 0.00 | 0.00 | 0.00 | 89 | 1010.2 |